Regional Weather Roundup
Issued by NWS

Home | Current Version | Previous Version | Text Only | Print | Product List | Glossary On
Versions: 1 2 3 4 5 6 7 8 9 10 11 12 13 14 15 16 17 18 19 20 21 22 23 24 25 26 27 28 29 30 31 32 33 34 35 36 37 38 39 40 41 42 43 44 45 46 47 48 49 50
982
ASUS43 KTOP 200708
RWRKS

WEATHER ROUNDUP FOR KANSAS
NATIONAL WEATHER SERVICE GOODLAND KS
200 AM CDT FRI APR 20 2018

NOTE:  "FAIR" INDICATES FEW OR NO CLOUDS BELOW 12,000 FEET WITH NO
SIGNIFICANT WEATHER AND/OR OBSTRUCTIONS TO VISIBILITY.

KSZ001>006-013>018-027>032-041>047-200800-
NORTHWEST KANSAS

CITY           SKY/WX    TMP DP  RH WIND       PRES   REMARKS
GOODLAND       CLOUDY    42  26  53 SE17G28   30.17S
HAYS           PTCLDY    38  26  62 SE12      30.31S WCI  30
HILL CITY      CLOUDY    39  27  62 E7        30.30R
RUSSELL        CLOUDY    37  27  67 SE10      30.31F WCI  30
$$

KSZ061>065-074>080-084>089-200800-
SOUTHWEST KANSAS

CITY           SKY/WX    TMP DP  RH WIND       PRES   REMARKS
DODGE CITY     CLOUDY    43  28  55 SE14      30.26S
ELKHART        MOCLDY    51  32  48 SE22      30.16F
GARDEN CITY    CLOUDY    46  28  49 SE24G32   30.22S
GREAT BEND     CLOUDY    38  27  64 SE7       30.32F
LIBERAL        PTCLDY    46  27  47 SE15      30.22F
PRATT          CLOUDY    41  25  54 E5        30.32F
$$

KSZ066>073-081>083-090>101-200800-
SOUTHEAST KANSAS

CITY           SKY/WX    TMP DP  RH WIND       PRES   REMARKS
CHANUTE        CLOUDY    43  31  62 E5        30.38S
COFFEYVILLE    CLOUDY    38  32  79 NE7       30.36F
HUTCHINSON     CLOUDY    41  29  62 SE6       30.35R
MEDICINE LODGE   N/A     43  28  55 E5        30.32R
NEWTON         PTCLDY    41  29  62 E9        30.35R
PARSONS        CLOUDY    37  33  85 E3        30.38S
WICHITA INTL   PTCLDY    44  31  60 SE8       30.34R
WICHITA JABRA  CLOUDY    39  29  67 E7        30.33F
WICHITA MCCONL CLOUDY    43  29  57 SE7       30.33S
WINFIELD       CLOUDY    43  31  62 E6        30.33F
$$

KSZ007>012-019>026-033>040-048>060-102>105-200800-
NORTHEAST KANSAS

CITY           SKY/WX    TMP DP  RH WIND       PRES   REMARKS
CONCORDIA      CLOUDY    41  26  55 S3        30.36R
EMPORIA        CLOUDY    37  29  72 E8        30.37F
LAWRENCE       CLEAR     38  30  73 E3        30.41S
MANHATTAN      CLOUDY    36  26  67 CALM      30.38S
MARYSVILLE     PTCLDY    37  28  70 SE8       30.39S
OLATHE IND     CLEAR     41  30  65 E6        30.41S
OLATHE EXE     CLEAR     43  29  57 E6        30.40F
SALINA         CLOUDY    42  29  59 S6        30.36R
TOPEKA BILLARD CLEAR     41  32  70 CALM      30.40F
TOPEKA FORBES  CLEAR     37  29  72 SE5       30.39F
$$




USA.gov is the U.S. government's official web portal to all federal, state and local government web resources and services.